This demonstration page uses our WeatherBlox Daily Observations layout. Learn more.

Hourly Observations for December 4, 2018

Temp ( °F °C ) Dew Point ( °F °C ) Humidity (%) Winds ( mph kmh ) Pressure ( in mb ) Visibility ( mi km ) Precip ( " mm )
12:15 am 00:15 Cloudy 22 -5.6 20 -6.5 93 93 Calm 30.42 1030 10 16.0934 0 0
12:35 am 00:35 Cloudy 22 -5.5 20 -6.5 93 93 Calm 30.42 1030 10 16.0934 0 0
12:55 am 00:55 Cloudy 22 -5.5 21 -6.3 94 94 Calm 30.42 1030 10 16.0934 0 0
1:15 am 01:15 Cloudy 22 -5.5 21 -6.3 94 94 Calm 30.42 1030 10 16.0934 0 0
1:35 am 01:35 Cloudy 22 -5.3 21 -6.2 93 93 Calm 30.42 1030 10 16.0934 0 0
1:55 am 01:55 Cloudy 23 -5.2 21 -6.1 93 93 Calm 30.42 1030 10 16.0934 0 0
2:15 am 02:15 Cloudy 23 -5 21 -6 93 93 Calm 30.42 1030 10 16.0934 0 0
2:35 am 02:35 Cloudy 23 -4.8 21 -6.1 91 91 W 3 6 30.42 1030 10 16.0934 0 0
2:55 am 02:55 Cloudy 24 -4.7 21 -6.1 90 90 Calm 30.42 1030 10 16.0934 0 0
3:15 am 03:15 Cloudy 24 -4.4 21 -6.1 88 88 NW 9 15 30.42 1030 10 16.0934 0 0
3:35 am 03:35 Cloudy 24 -4.3 21 -6.2 87 87 NW 9 15 30.42 1030 10 16.0934 0 0
3:55 am 03:55 Cloudy 24 -4.3 21 -6.3 86 86 NW 8 13 30.36 1028 10 16.0934 0 0
4:15 am 04:15 Cloudy 24 -4.5 21 -6.2 88 88 NW 6 9 30.39 1029 10 16.0934 0 0
4:35 am 04:35 Cloudy 24 -4.4 21 -6.2 87 87 WNW 9 15 30.36 1028 10 16.0934 0 0
4:55 am 04:55 Cloudy 24 -4.2 21 -6.2 86 86 WNW 8 13 30.36 1028 10 16.0934 0 0
5:15 am 05:15 Cloudy 24 -4.3 21 -6 88 88 WNW 6 9 30.36 1028 10 16.0934 0 0
5:35 am 05:35 Cloudy 24 -4.2 21 -5.9 88 88 WNW 5 7 30.36 1028 10 16.0934 0 0
5:55 am 05:55 Cloudy 24 -4.2 22 -5.8 89 89 WNW 3 6 30.36 1028 10 16.0934 0 0
6:15 am 06:15 Cloudy 24 -4.2 22 -5.7 89 89 NW 5 7 30.36 1028 10 16.0934 0 0
6:35 am 06:35 Cloudy 24 -4.2 21 -5.9 88 88 NW 6 9 30.36 1028 10 16.0934 0 0
6:55 am 06:55 Cloudy 25 -4.1 22 -5.8 88 88 WNW 6 9 30.36 1028 10 16.0934 0 0
7:15 am 07:15 Cloudy 25 -4.1 21 -6 87 87 WNW 7 11 30.36 1028 10 16.0934 0 0
7:35 am 07:35 Cloudy 25 -4.1 22 -5.7 89 89 WNW 7 11 30.36 1028 10 16.0934 0 0
7:55 am 07:55 Cloudy 25 -4.1 21 -6 87 87 WNW 7 11 30.36 1028 10 16.0934 0 0
8:15 am 08:15 Cloudy 25 -4.1 22 -5.6 89 89 WNW 3 6 30.36 1028 10 16.0934 0 0
8:35 am 08:35 Cloudy 25 -4 22 -5.6 89 89 W 3 6 30.36 1028 10 16.0934 0 0
8:55 am 08:55 Cloudy 25 -3.8 22 -5.4 89 89 WSW 5 7 30.36 1028 10 16.0934 0 0
9:15 am 09:15 Cloudy 26 -3.6 22 -5.3 88 88 W 6 9 30.36 1028 10 16.0934 0 0
9:35 am 09:35 Cloudy 26 -3.2 23 -5 88 88 WSW 8 13 30.36 1028 10 16.0934 0 0
9:55 am 09:55 Cloudy 27 -2.8 24 -4.6 88 88 W 7 11 30.36 1028 10 16.0934 0 0
10:15 am 10:15 Cloudy 27 -2.6 24 -4.5 87 87 W 9 15 30.36 1028 10 16.0934 0 0
10:35 am 10:35 Cloudy 28 -2.5 24 -4.4 87 87 W 10 17 30.36 1028 10 16.0934 0 0
10:55 am 10:55 Cloudy 28 -2.2 25 -4 88 88 W 9 15 30.36 1028 10 16.0934 0 0
11:15 am 11:15 Cloudy 29 -1.7 25 -4 85 85 W 9 15 30.36 1028 10 16.0934 0 0
11:35 am 11:35 Cloudy 29 -1.5 25 -4 83 83 W 8 13 30.36 1028 10 16.0934 0 0
11:55 am 11:55 Cloudy 30 -1.2 25 -4 82 82 W 9 15 30.33 1027 10 16.0934 0 0
12:15 pm 12:15 Cloudy 30 -1 25 -4.1 80 80 WNW 8 13 30.3 1026 10 16.0934 0 0
12:35 pm 12:35 Cloudy 30 -1 25 -4 80 80 W 10 17 30.3 1026 10 16.0934 0 0
12:55 pm 12:55 Cloudy 31 -0.5 25 -4.1 77 77 WNW 9 15 30.3 1026 10 16.0934 0 0
1:15 pm 13:15 Cloudy 31 -0.5 25 -4 77 77 W 8 13 30.3 1026 10 16.0934 0 0
1:35 pm 13:35 Partly Cloudy 31 -0.8 25 -3.9 80 80 W 10 17 30.3 1026 10 16.0934 0 0
1:55 pm 13:55 Mostly Cloudy 30 -1.1 25 -3.7 83 83 WSW 10 17 30.27 1025 10 16.0934 0 0
2:15 pm 14:15 Mostly Cloudy 30 -1.2 25 -3.7 83 83 WSW 9 15 30.27 1025 10 16.0934 0 0
2:35 pm 14:35 Partly Cloudy 31 -0.6 26 -3.5 81 81 WSW 14 22 30.27 1025 10 16.0934 0 0
2:55 pm 14:55 Sunny 31 -0.6 26 -3.2 83 83 WSW 12 19 30.27 1025 10 16.0934 0 0
3:15 pm 15:15 Sunny 31 -0.5 26 -3.1 83 83 WSW 8 13 30.27 1025 10 16.0934 0 0
3:35 pm 15:35 Sunny 32 -0.1 27 -2.8 82 82 WSW 10 17 30.27 1025 10 16.0934 0 0
3:55 pm 15:55 Sunny 31 -0.5 28 -2.5 87 87 WSW 12 19 30.27 1025 10 16.0934 0 0
4:15 pm 16:15 Sunny 31 -0.5 28 -2.5 87 87 W 13 20 30.27 1025 10 16.0934 0 0
4:35 pm 16:35 Sunny 31 -0.7 28 -2.5 88 88 W 10 17 30.27 1025 10 16.0934 0 0
4:55 pm 16:55 Sunny 30 -1.2 27 -2.7 90 90 W 9 15 30.27 1025 10 16.0934 0 0
5:15 pm 17:15 Clear 29 -1.8 27 -3 92 92 W 8 13 30.27 1025 10 16.0934 0 0
5:35 pm 17:35 Clear 29 -1.8 27 -3 92 92 W 10 17 30.27 1025 10 16.0934 0 0
5:55 pm 17:55 Clear 28 -2 26 -3.2 92 92 W 10 17 30.27 1025 10 16.0934 0 0
6:15 pm 18:15 Clear 28 -2.2 26 -3.5 91 91 W 9 15 30.3 1026 10 16.0934 0 0
6:35 pm 18:35 Clear 28 -2.5 26 -3.5 93 93 W 8 13 30.3 1026 10 16.0934 0 0
6:55 pm 18:55 Clear 28 -2.4 26 -3.4 93 93 W 8 13 30.3 1026 10 16.0934 0 0
7:15 pm 19:15 Clear 27 -2.8 25 -3.9 92 92 W 9 15 30.3 1026 10 16.0934 0 0
7:35 pm 19:35 Clear 28 -2.5 26 -3.6 92 92 W 10 17 30.3 1026 10 16.0934 0 0
7:55 pm 19:55 Clear 27 -2.9 25 -4.1 92 92 W 10 17 30.3 1026 10 16.0934 0 0
8:15 pm 20:15 Clear 27 -2.9 24 -4.4 90 90 W 12 19 30.3 1026 10 16.0934 0 0
8:35 pm 20:35 Clear 26 -3.4 24 -4.7 91 91 W 9 15 30.3 1026 10 16.0934 0 0
8:55 pm 20:55 Clear 26 -3.5 23 -5.2 88 88 W 10 17 30.3 1026 10 16.0934 0 0
9:15 pm 21:15 Clear 26 -3.5 22 -5.6 86 86 W 10 17 30.3 1026 10 16.0934 0 0
9:35 pm 21:35 Clear 25 -4 21 -6.1 86 86 W 9 15 30.33 1027 10 16.0934 0 0
9:55 pm 21:55 Clear 23 -5.2 19 -7.1 87 87 W 9 15 30.36 1028 10 16.0934 0 0
10:15 pm 22:15 Clear 24 -4.2 20 -6.8 82 82 W 9 15 30.3 1026 10 16.0934 0 0
10:35 pm 22:35 Clear 25 -4.1 19 -7.4 78 78 W 9 15 30.33 1027 10 16.0934 0 0
10:55 pm 22:55 Clear 22 -5.3 18 -8 82 82 W 8 13 30.36 1028 10 16.0934 0 0
11:15 pm 23:15 Clear 21 -6 17 -8.4 83 83 W 7 11 30.36 1028 10 16.0934 0 0
11:35 pm 23:35 Clear 23 -5 18 -7.6 82 82 W 12 19 30.36 1028 10 16.0934 0 0
11:55 pm 23:55 Clear 22 -5.3 19 -7.5 85 85 W 9 15 30.36 1028 10 16.0934 0 0

Powered by AerisWeather